Regional Weather Roundup
Issued by NWS

Home | Current Version | Previous Version | Graphics & Text | Print | Product List | Glossary On
Versions: 1 2 3 4 5 6 7 8 9 10 11 12 13 14 15 16 17 18 19 20 21 22 23 24 25 26 27 28 29 30 31 32 33 34 35 36 37 38 39 40 41 42 43 44 45 46 47 48 49 50
000
ASUS43 KDMX 241106
RWRIA

WEATHER ROUNDUP FOR IOWA
NATIONAL WEATHER SERVICE DES MOINES IA
500 AM CST SAT FEB 24 2018

NOTE: "FAIR" INDICATES FEW OR NO CLOUDS BELOW 12,000 FEET WITH NO
SIGNIFICANT WEATHER AND/OR OBSTRUCTIONS TO VISIBILITY.

* - THESE STATIONS ARE NOT NWS STATIONS...THUS NOT UNDER NWS
QUALITY CONTROL.  THEY ALSO DO NOT REPORT WEATHER SUCH
AS PRECIPITATION OR FOG.

IAZ001>003-012>014-020>022-031>034-043>046-241200-
   NORTHWEST IOWA

CITY           SKY/WX    TMP DP  RH WIND       PRES   REMARKS
CARROLL *      FOG       18  18 100 NE12      30.05F VSB 1/4 WCI   5
CHEROKEE *     CLOUDY    17  17 100 E6        30.09F FOG     WCI   8
DENISON *      CLOUDY    19  19 100 E9        30.07S WCI   9
LE MARS *      CLOUDY    19  19 100 E12       30.09F WCI   7
ORANGE CITY *  CLOUDY    18  18 100 E6        30.08F FOG     WCI   9
SHELDON *      FOG       14  14 100 E8        30.08F VSB 3/4 WCI   3
SIOUX CITY     CLOUDY    21  20  96 E8        30.08F WCI  11
SPENCER        FRZ RAIN  16  11  80 E9        30.11F VSB 1/2 WCI   4
STORM LAKE *   FOG       16  14  93 E15       30.06F VSB<1/4 WCI   1
$$

IAZ055>058-069>071-079>083-090>094-241200-
   SOUTHWEST IOWA

CITY           SKY/WX    TMP DP  RH WIND       PRES   REMARKS
ATLANTIC *     CLOUDY    25  23  93 E8G18     30.07S WCI  16
AUDUBON *      CLOUDY    21  19  93 E12       30.05F WCI   9
CLARINDA *     MIX PCPN  28  28 100 E9        30.06F WCI  20
COUNCIL BLFS * MIX PCPN  23  23 100 E12       30.03F WCI  12
CRESTON *      MIX PCPN  25  23  93 E17G23    30.05S WCI  11
HARLAN  *      CLOUDY    23  23 100 E10       30.09F WCI  12
LAMONI         FRZ RAIN  27  24  89 NE10      30.05F FOG     WCI  17
RED OAK *      FLURRIES  25  25 100 NE12      30.05F WCI  14
SHENANDOAH *   CLOUDY    27  25  93 NE12G18   30.04F FOG     WCI  16
$$

IAZ047>049-059>061-072>074-084-241200-
   CENTRAL IOWA

CITY           SKY/WX    TMP DP  RH WIND       PRES   REMARKS
AMES           CLEAR     22  19  89 NE7       30.11F WCI  13
ANKENY *       MOCLDY    23  21  93 E8        30.11F WCI  14
BOONE *        CLEAR     21  19  93 MISG      30.09S FOG
CHARITON *     CLOUDY    27  25  93 NE12      30.07F WCI  16
DES MOINES     CLOUDY    24  21  88 E7        30.10F WCI  16
GRINNELL*      CLOUDY    25  23  92 E13       30.12F WCI  13
KNOXVILLE *    CLOUDY    27  23  86 E9        30.08F WCI  17
MARSHALLTOWN   CLEAR     23  20  88 E8        30.12S WCI  14
NEWTON *       MOCLDY    25  23  93 E10       30.11F WCI  15
PELLA *        CLOUDY    27  23  84 E6        30.12F WCI  21
PERRY *        FAIR      21  20  96 NE3       30.11S FOG
$$

IAZ004>006-015-016-023>025-035-036-241200-
   NORTH CENTRAL IOWA

CITY           SKY/WX    TMP DP  RH WIND       PRES   REMARKS
ALGONA *       FOG       10 N/A N/A NE7       30.11F VSB 1/4 WCI   0
CLARION *      FOG       14  14 100 E10       30.10F VSB 1   WCI   1
ESTHERVILLE    FOG        9   8  96 NE8       30.12F VSB 1/4 WCI  -3
FORT DODGE *   SNOW      11   9  92 NE8       30.10F VSB 1/4 WCI  -1
MASON CITY     CLOUDY    10   7  87 NE7       30.14F FOG     WCI  -1
FOREST CITY *  FAIR     N/A N/A N/A CALM      30.13F HAZE
WEBSTER CITY * CLOUDY     9   7  92 NE5       30.08F FOG     WCI   0
IOWA FALLS *   FAIR      21  19  93 NE9       30.11F WCI  10
$$

IAZ007>011-017>019-026>030-037>042-050>054-066-241200-
   NORTHEAST IOWA

CITY           SKY/WX    TMP DP  RH WIND       PRES   REMARKS
CEDAR RAPIDS   CLOUDY    28  23  81 E9        30.14R HAZE    WCI  19
CHARLES CITY * FAIR      19  19 100 NE8       30.14F WCI   9
CLINTON *      MOCLDY    29  27  92 E15       30.15F WCI  18
DECORAH *      FAIR      19  19 100 NE5       30.15F FOG     WCI  13
DUBUQUE        CLOUDY    25  22  88 NE12      30.14F FOG     WCI  14
MONTICELLO *   CLOUDY    27  25  93 NE5G12    30.14F WCI  21
OELWEIN *      FAIR      23  23 100 NE14      30.12F FOG     WCI  11
WATERLOO       FAIR      22  20  92 NE9       30.13F FOG     WCI  12
$$

IAZ064-065-067-068-078-241200-
   EAST CENTRAL IOWA

CITY           SKY/WX    TMP DP  RH WIND       PRES   REMARKS
DAVENPORT      CLOUDY    30  25  81 E14       30.16F WCI  19
IOWA CITY      CLOUDY    30  23  75 E7        30.16F WCI  23
MT. PLEASANT * MIX PCPN  30  28  93 NE12      30.12F WCI  21
MUSCATINE *    CLOUDY    30  27  86 NE8       30.16F WCI  23
QUAD CITIES    CLOUDY    31  26  82 NE9       30.15S WCI  23
$$

IAZ062-063-075>077-085>089-095>099-241200-
   SOUTHEAST IOWA

CITY           SKY/WX    TMP DP  RH WIND       PRES   REMARKS
BURLINGTON     MIX PCPN  31  27  85 NE9       30.11F FOG     WCI  23
FAIRFIELD *    CLOUDY    28  27  93 NE14      30.11F WCI  17
FORT MADISON * MIX PCPN  30  28  93 NE12      30.10F WCI  21
KEOKUK *       CLOUDY    32  30  93 NE10      30.10S WCI  24
OSKALOOSA *    MIX PCPN  28  25  91 E9        30.12F WCI  19
OTTUMWA        FRZ RAIN  29  25  85 E13       30.10F FOG     WCI  19
WASHINGTON *   CLOUDY    28  28 100 E14       30.14F WCI  17
$$

ABBREVIATIONS USED IN REMARKS
   TC - TEMPERATURES IN CELSIUS
  WCI - WIND CHILL INDEX
   HX - HEAT INDEX
  VSB - VISIBILITY
$$





USA.gov is the U.S. government's official web portal to all federal, state and local government web resources and services.